GW7269 Weather Reports


time (UTC)temp
C
wind
direction
speed
KPH
gust
KPH
rain 1hr
cm
rain 24hr
cm
rain mn
cm
humidity
%
barometer
mb
20260506235011 10 227 0.0 1.6 0.00 0.00 0.00 72 1023.4
20260506234530 10 219 0.0 1.6 0.00 0.00 0.00 72 1023.4
20260506234012 10 273 0.0 1.6 0.00 0.00 0.00 70 1023.4
20260506233514 10 260 0.0 3.2 0.00 0.00 0.00 70 1023.4
20260506233026 10 257 0.0 3.2 0.00 0.00 0.00 70 1023.3
20260506232512 10 273 0.0 3.2 0.00 0.00 0.00 70 1023.2
20260506231528 10 273 0.0 3.2 0.00 0.00 0.00 71 1023.3
20260506231013 10 246 0.0 3.2 0.00 0.00 0.00 71 1023.1
20260506230512 9 266 0.0 4.8 0.00 0.00 0.00 71 1023.1
20260506230028 9 269 0.0 4.8 0.00 0.00 0.00 70 1023.1
20260506225515 9 263 0.0 3.2 0.00 0.00 0.00 70 1023.1
20260506225012 9 267 0.0 4.8 0.00 0.00 0.00 71 1023.2
20260506224535 9 261 0.0 4.8 0.00 0.00 0.00 70 1023.2
20260506224010 9 257 0.0 4.8 0.00 0.00 0.00 69 1023.3
20260506223510 9 266 0.0 4.8 0.00 0.00 0.00 69 1023.4
20260506223027 10 257 0.0 4.8 0.00 0.00 0.00 67 1023.2
20260506222512 10 259 0.0 3.2 0.00 0.00 0.00 66 1023.2
20260506222014 10 241 0.0 3.2 0.00 0.00 0.00 65 1023.3
20260506221529 10 270 0.0 1.6 0.00 0.00 0.00 64 1023.3
20260506221010 10 259 0.0 1.6 0.00 0.00 0.00 63 1023.2
20260506220512 10 257 0.0 1.6 0.00 0.00 0.00 63 1023.2
20260506220035 10 252 0.0 1.6 0.00 0.00 0.00 63 1023.2
20260506215512 10 278 0.0 1.6 0.00 0.00 0.00 62 1023.3
20260506215011 10 242 0.0 1.6 0.00 0.00 0.00 63 1023.2
20260506214528 10 206 0.0 4.8 0.00 0.00 0.00 65 1023.3
20260506214013 10 258 0.0 4.8 0.00 0.00 0.00 65 1023.3
20260506213511 10 263 0.0 1.6 0.00 0.00 0.00 65 1023.2
20260506213029 10 261 0.0 4.8 0.00 0.00 0.00 66 1023.3
20260506212511 10 262 1.6 4.8 0.00 0.00 0.00 64 1023.2
20260506212016 10 285 0.0 3.2 0.00 0.00 0.00 64 1023.2
20260506211534 10 236 0.0 3.2 0.00 0.00 0.00 63 1023.1
20260506211013 10 257 0.0 3.2 0.00 0.00 0.00 63 1023.1
20260506210510 10 252 0.0 3.2 0.00 0.00 0.00 63 1023.1
20260506210033 10 296 0.0 1.6 0.00 0.00 0.00 63 1023.1
20260506205513 10 248 0.0 4.8 0.00 0.00 0.00 63 1023.0
20260506205011 10 265 0.0 4.8 0.00 0.00 0.00 61 1023.1
20260506204535 10 256 0.0 6.4 0.00 0.00 0.00 61 1022.9
20260506204011 10 305 0.0 8.0 0.00 0.00 0.00 59 1022.9
20260506203511 10 314 1.6 8.0 0.00 0.00 0.00 60 1022.8
20260506203031 10 294 3.2 8.0 0.00 0.00 0.00 60 1022.7
20260506202510 10 285 1.6 6.4 0.00 0.00 0.00 60 1022.7
20260506202012 10 286 0.0 8.0 0.00 0.00 0.00 61 1022.7
20260506201538 10 280 1.6 8.0 0.00 0.00 0.00 60 1022.5
20260506201012 10 299 1.6 6.4 0.00 0.00 0.00 61 1022.4
20260506200512 10 284 1.6 11.3 0.00 0.00 0.00 61 1022.5
20260506200032 10 294 0.0 8.0 0.00 0.00 0.00 63 1022.6
20260506195513 10 293 3.2 8.0 0.00 0.00 0.00 62 1022.6
20260506195011 10 290 1.6 8.0 0.00 0.00 0.00 60 1022.7
20260506194528 10 277 0.0 8.0 0.00 0.00 0.00 61 1022.7
20260506194010 10 295 3.2 8.0 0.00 0.00 0.00 62 1022.5
20260506193514 10 315 3.2 8.0 0.00 0.00 0.00 62 1022.5
20260506193031 10 306 3.2 14.5 0.00 0.00 0.00 62 1022.6
20260506192512 10 281 4.8 14.5 0.00 0.00 0.00 61 1022.4
20260506192010 10 291 3.2 11.3 0.00 0.00 0.00 62 1022.4
20260506191533 10 314 4.8 8.0 0.00 0.00 0.00 61 1022.4
20260506191013 10 276 1.6 9.7 0.00 0.00 0.00 61 1022.4
20260506190512 10 301 6.4 9.7 0.00 0.00 0.00 61 1022.3
20260506190031 10 321 3.2 12.9 0.00 0.00 0.00 63 1022.2
20260506185512 9 306 6.4 14.5 0.00 0.00 0.00 62 1022.1
20260506185013 10 309 4.8 14.5 0.00 0.00 0.00 62 1022.2
20260506184533 10 313 1.6 8.0 0.00 0.00 0.00 62 1022.1
20260506184011 10 321 0.0 3.2 0.00 0.00 0.00 62 1022.1
20260506183510 10 331 0.0 6.4 0.00 0.00 0.00 60 1022.2
20260506183032 10 348 0.0 6.4 0.00 0.00 0.00 61 1022.2
20260506182512 10 5 0.0 8.0 0.00 0.00 0.00 60 1022.1
20260506182012 10 302 1.6 6.4 0.00 0.00 0.00 60 1022.1
20260506181532 9 319 1.6 6.4 0.00 0.00 0.00 62 1022.0
20260506181013 8 326 0.0 6.4 0.00 0.00 0.00 64 1021.9
20260506180514 9 327 1.6 6.4 0.00 0.00 0.00 64 1022.0
20260506180033 8 334 0.0 12.9 0.00 0.00 0.00 64 1022.0
20260506175513 9 331 0.0 12.9 0.00 0.00 0.00 65 1022.1
20260506175012 8 322 4.8 12.9 0.00 0.00 0.00 64 1022.0
20260506174533 9 294 8.0 12.9 0.00 0.00 0.00 61 1022.0
20260506174010 9 327 1.6 9.7 0.00 0.00 0.00 63 1021.9
20260506173512 8 289 1.6 8.0 0.00 0.00 0.00 66 1021.9
20260506173031 8 285 1.6 8.0 0.00 0.00 0.00 66 1022.0
20260506172515 9 305 4.8 8.0 0.00 0.00 0.00 63 1022.1
20260506172013 9 317 0.0 6.4 0.00 0.00 0.00 66 1022.1
20260506171539 8 290 0.0 6.4 0.00 0.00 0.00 67 1021.9
20260506171011 8 298 3.2 9.7 0.00 0.00 0.00 67 1021.9
20260506170514 8 291 4.8 9.7 0.00 0.00 0.00 66 1021.9
20260506170038 8 296 3.2 8.0 0.00 0.00 0.00 67 1022.0
20260506165512 8 309 1.6 8.0 0.00 0.00 0.00 68 1022.1
20260506165012 8 314 1.6 8.0 0.00 0.00 0.00 70 1022.0
20260506164528 8 294 1.6 8.0 0.00 0.00 0.00 69 1022.0
20260506164013 8 307 1.6 8.0 0.00 0.00 0.00 70 1021.9
20260506163512 8 316 4.8 9.7 0.00 0.00 0.00 68 1022.0
20260506163035 8 313 3.2 6.4 0.00 0.00 0.00 69 1021.9
20260506162509 7 326 1.6 8.0 0.00 0.00 0.00 69 1021.8
20260506162014 7 317 1.6 8.0 0.00 0.00 0.00 69 1021.7
20260506161532 7 325 1.6 8.0 0.00 0.00 0.00 71 1021.6
20260506161013 7 309 3.2 11.3 0.00 0.00 0.00 70 1021.6
20260506160511 7 305 3.2 9.7 0.00 0.00 0.00 70 1021.6
20260506160045 7 302 3.2 14.5 0.00 0.00 0.00 71 1021.6
20260506155512 7 313 6.4 14.5 0.00 0.00 0.00 70 1021.5
20260506155012 7 326 4.8 12.9 0.00 0.00 0.00 71 1021.4
20260506154533 7 333 4.8 12.9 0.00 0.00 0.00 71 1021.4
20260506154012 7 327 3.2 9.7 0.00 0.00 0.00 71 1021.4
20260506153513 7 315 3.2 14.5 0.00 0.00 0.00 70 1021.3
20260506153031 7 320 6.4 16.1 0.00 0.00 0.00 70 1021.3
20260506152515 7 314 4.8 14.5 0.00 0.00 0.00 70 1021.3
20260506152011 7 296 6.4 14.5 0.00 0.00 0.00 69 1021.4
20260506151540 7 312 6.4 19.3 0.00 0.00 0.00 69 1021.4
20260506151014 7 297 4.8 17.7 0.00 0.00 0.00 69 1021.3
20260506150513 7 307 6.4 12.9 0.00 0.00 0.00 70 1021.3
20260506150028 7 311 4.8 12.9 0.00 0.00 0.00 71 1021.3
20260506145511 7 313 4.8 16.1 0.00 0.00 0.00 70 1021.3
20260506145013 7 311 6.4 14.5 0.00 0.00 0.00 70 1021.1
20260506144530 7 306 8.0 14.5 0.00 0.00 0.00 72 1021.1
20260506144013 7 317 6.4 16.1 0.00 0.00 0.00 72 1021.2
20260506143514 7 294 8.0 16.1 0.00 0.00 0.00 73 1021.0
20260506143032 7 298 6.4 12.9 0.00 0.00 0.00 72 1021.0
20260506142511 7 302 6.4 12.9 0.00 0.00 0.00 72 1020.9
20260506142015 7 303 6.4 9.7 0.00 0.00 0.00 72 1020.9
20260506141529 7 296 4.8 9.7 0.00 0.00 0.00 72 1020.9
20260506141011 7 321 6.4 12.9 0.00 0.00 0.00 72 1020.9
20260506140513 7 303 6.4 12.9 0.00 0.00 0.00 72 1020.8
20260506140033 7 302 4.8 12.9 0.00 0.00 0.00 72 1020.8
20260506135513 7 309 6.4 12.9 0.00 0.00 0.00 71 1020.7
20260506135013 7 317 6.4 12.9 0.00 0.00 0.00 72 1020.7
20260506134533 7 311 4.8 14.5 0.00 0.00 0.00 72 1020.6
20260506134014 7 315 4.8 14.5 0.00 0.00 0.00 71 1020.6
20260506133512 7 310 4.8 14.5 0.00 0.00 0.00 71 1020.5
20260506133036 7 290 4.8 14.5 0.00 0.00 0.00 72 1020.4
20260506132515 7 319 4.8 8.0 0.00 0.00 0.00 72 1020.3
20260506132012 7 300 4.8 8.0 0.00 0.00 0.00 72 1020.2
20260506131542 7 312 4.8 8.0 0.00 0.00 0.00 72 1020.1
20260506131016 7 300 3.2 9.7 0.00 0.00 0.00 72 1020.2
20260506130517 7 327 3.2 12.9 0.00 0.00 0.00 72 1020.2
20260506130030 7 326 1.6 8.0 0.00 0.00 0.00 72 1020.2
20260506125511 7 313 4.8 16.1 0.00 0.00 0.00 73 1020.2
20260506125016 7 306 6.4 16.1 0.00 0.00 0.00 72 1020.2
20260506124533 7 298 4.8 11.3 0.00 0.00 0.00 74 1020.3
20260506124013 7 304 4.8 9.7 0.00 0.00 0.00 76 1020.3
20260506123512 7 309 4.8 16.1 0.00 0.00 0.00 76 1020.1
20260506123040 7 304 6.4 16.1 0.00 0.00 0.00 76 1020.0
20260506122514 7 310 6.4 14.5 0.00 0.00 0.00 76 1020.1
20260506122016 7 313 6.4 11.3 0.00 0.00 0.00 76 1020.0
20260506121539 7 303 4.8 11.3 0.00 0.00 0.00 77 1020.0
20260506121014 7 286 3.2 12.9 0.00 0.00 0.00 76 1019.9
20260506120517 7 310 4.8 12.9 0.00 0.00 0.00 76 1019.9
20260506120035 7 317 4.8 14.5 0.00 0.00 0.00 76 1019.8
20260506115512 7 304 4.8 12.9 0.00 0.00 0.00 75 1019.7
20260506115013 7 302 6.4 12.9 0.00 0.00 0.00 75 1019.8
20260506114541 7 293 3.2 12.9 0.00 0.00 0.00 75 1019.8
20260506114011 7 314 6.4 12.9 0.00 0.00 0.00 75 1019.7
20260506113514 7 300 3.2 8.0 0.00 0.00 0.00 76 1019.8
20260506113035 7 307 3.2 11.3 0.00 0.00 0.00 76 1019.7
20260506112517 7 308 4.8 12.9 0.00 0.00 0.00 76 1019.6
20260506112014 7 311 4.8 12.9 0.00 0.00 0.00 76 1019.6
20260506111532 7 321 4.8 12.9 0.00 0.00 0.00 76 1019.6
20260506111015 7 313 4.8 12.9 0.00 0.00 0.00 76 1019.5
20260506110515 7 302 4.8 14.5 0.00 0.00 0.00 76 1019.5
20260506110036 7 351 3.2 14.5 0.00 0.00 0.00 76 1019.5
20260506105519 7 319 1.6 8.0 0.00 0.00 0.00 77 1019.5
20260506105014 7 310 3.2 8.0 0.00 0.00 0.00 77 1019.5
20260506104546 7 310 3.2 9.7 0.00 0.00 0.00 77 1019.4
20260506104011 7 311 4.8 12.9 0.00 0.00 0.00 76 1019.3
20260506103517 7 305 4.8 12.9 0.00 0.00 0.00 77 1019.3
20260506103034 7 313 4.8 12.9 0.00 0.00 0.00 77 1019.3
20260506102515 7 311 3.2 6.4 0.00 0.00 0.00 77 1019.4
20260506102013 7 323 3.2 12.9 0.00 0.00 0.00 77 1019.3
20260506101545 7 319 4.8 12.9 0.00 0.00 0.00 77 1019.4
20260506101011 7 313 4.8 14.5 0.00 0.00 0.00 77 1019.4
20260506100512 7 315 4.8 14.5 0.00 0.00 0.00 78 1019.4
20260506100046 7 313 4.8 12.9 0.00 0.00 0.00 78 1019.3
20260506095513 7 294 4.8 9.7 0.00 0.00 0.00 78 1019.4
20260506095013 7 311 3.2 9.7 0.00 0.00 0.00 78 1019.3
20260506094549 7 320 4.8 9.7 0.00 0.00 0.00 78 1019.3
20260506094012 7 315 3.2 12.9 0.00 0.00 0.00 78 1019.2
20260506093515 7 315 3.2 12.9 0.00 0.00 0.00 78 1019.1
20260506093042 7 324 3.2 9.7 0.00 0.00 0.00 77 1019.2
20260506092520 7 311 4.8 12.9 0.00 0.00 0.00 77 1019.2
20260506092016 7 307 4.8 12.9 0.00 0.00 0.00 77 1019.1
20260506091541 7 318 3.2 8.0 0.00 0.00 0.00 77 1019.0
20260506091013 7 321 4.8 9.7 0.00 0.00 0.00 76 1019.1
20260506090515 7 321 4.8 9.7 0.00 0.00 0.00 76 1018.9
20260506090048 7 331 4.8 9.7 0.00 0.00 0.00 75 1018.9
20260506085515 7 315 3.2 11.3 0.00 0.00 0.00 75 1018.9
20260506085012 7 307 4.8 14.5 0.00 0.00 0.00 75 1018.9
20260506084543 7 324 4.8 14.5 0.00 0.00 0.00 75 1018.9
20260506084015 7 306 4.8 14.5 0.00 0.00 0.00 75 1018.9
20260506083513 7 323 4.8 17.7 0.00 0.00 0.00 74 1018.9
20260506083049 7 311 6.4 17.7 0.00 0.00 0.00 74 1018.8
20260506082515 7 328 6.4 20.9 0.00 0.00 0.00 74 1018.9
20260506082017 7 322 6.4 20.9 0.00 0.00 0.00 74 1018.8
20260506081536 7 310 6.4 14.5 0.00 0.00 0.00 73 1018.8
20260506081015 7 320 6.4 14.5 0.00 0.00 0.00 74 1018.8
20260506080516 7 306 4.8 22.5 0.00 0.00 0.00 75 1018.8
20260506073513 7 311 8.0 12.9 0.00 0.00 0.00 74 1018.6
20260506073053 7 314 6.4 14.5 0.00 0.00 0.00 74 1018.6
20260506072514 8 311 6.4 17.7 0.00 0.00 0.00 74 1018.6
20260506072016 8 311 8.0 17.7 0.00 0.00 0.00 74 1018.6
20260506071556 7 323 6.4 16.1 0.00 0.00 0.00 74 1018.5
20260506071014 7 317 4.8 9.7 0.00 0.00 0.00 74 1018.6
20260506070515 7 313 4.8 14.5 0.00 0.00 0.00 74 1018.4
20260506062515 8 326 6.4 19.3 0.00 0.00 0.00 71 1018.0
20260506062016 8 321 6.4 19.3 0.00 0.00 0.00 71 1018.0
20260506061549 8 316 8.0 22.5 0.00 0.00 0.00 69 1017.9
20260506061019 8 318 8.0 24.1 0.00 0.00 0.00 69 1018.0
20260506060518 8 329 11.3 24.1 0.00 0.00 0.00 68 1017.9
20260506051017 8 315 11.3 17.7 0.00 0.00 0.00 71 1017.8
20260506050518 8 313 9.7 20.9 0.00 0.00 0.00 71 1017.9
20260506045017 8 305 6.4 14.5 0.00 0.00 0.00 73 1017.8
20260506044552 8 309 9.7 17.7 0.00 0.00 0.00 72 1017.7
20260506044022 8 301 11.3 17.7 0.00 0.00 0.00 72 1017.7
20260506043512 8 300 9.7 16.1 0.00 0.00 0.00 72 1017.6
20260506043027 8 284 11.3 17.7 0.00 0.00 0.00 72 1017.6
20260506042515 8 288 9.7 16.1 0.00 0.00 0.00 72 1017.4
20260506042009 8 296 11.3 16.1 0.00 0.00 0.00 71 1017.4
20260506041528 8 308 9.7 16.1 0.00 0.00 0.00 71 1017.2
20260506041011 8 278 8.0 19.3 0.00 0.00 0.00 71 1017.1
20260506040515 8 282 11.3 19.3 0.00 0.00 0.00 71 1017.0
20260506040029 8 287 9.7 22.5 0.00 0.00 0.00 71 1016.7
20260506035514 9 280 9.7 22.5 0.00 0.00 0.00 71 1016.6
20260506035011 9 309 11.3 17.7 0.00 0.00 0.00 70 1016.5
20260506034528 9 289 11.3 17.7 0.00 0.00 0.00 70 1016.3
20260506034011 9 285 6.4 12.9 0.00 0.00 0.00 70 1016.4
20260506033509 9 281 8.0 16.1 0.00 0.00 0.00 71 1016.3
20260506033033 10 292 8.0 16.1 0.00 0.00 0.00 70 1016.3
20260506032512 10 274 6.4 14.5 0.00 0.00 0.00 68 1016.2
20260506032011 10 290 6.4 14.5 0.00 0.00 0.00 68 1016.3
20260506031532 10 304 4.8 11.3 0.00 0.00 0.00 68 1016.3
20260506031009 10 282 6.4 14.5 0.00 0.00 0.00 68 1016.4
20260506030511 10 296 6.4 14.5 0.00 0.00 0.00 66 1016.2
20260506030050 11 290 8.0 12.9 0.00 0.00 0.00 65 1016.1
20260506025511 11 296 4.8 11.3 0.00 0.00 0.00 65 1016.0
20260506025012 11 286 4.8 9.7 0.00 0.00 0.00 66 1016.1
20260506024531 11 280 6.4 14.5 0.00 0.00 0.00 66 1016.0
20260506024011 11 290 4.8 12.9 0.00 0.00 0.00 65 1016.0
20260506023513 11 280 4.8 11.3 0.00 0.00 0.00 65 1015.9
20260506023027 11 304 3.2 8.0 0.00 0.00 0.00 64 1015.9
20260506022510 11 261 3.2 11.3 0.00 0.00 0.00 63 1015.9
20260506022010 11 281 3.2 8.0 0.00 0.00 0.00 63 1015.9
20260506021528 11 302 4.8 8.0 0.00 0.00 0.00 61 1015.9
20260506021012 11 293 3.2 11.3 0.00 0.00 0.00 62 1016.0
20260506020515 12 293 4.8 8.0 0.00 0.00 0.00 62 1015.9
20260506020028 12 291 4.8 11.3 0.00 0.00 0.00 61 1015.8
20260506015517 12 279 4.8 11.3 0.00 0.00 0.00 60 1015.8
20260506015010 12 295 4.8 11.3 0.00 0.00 0.00 61 1015.7
20260506014528 12 271 4.8 9.7 0.00 0.00 0.00 59 1015.8
20260506014008 12 281 4.8 9.7 0.00 0.00 0.00 59 1015.6
20260506013511 12 290 3.2 12.9 0.00 0.00 0.00 57 1015.6
20260506013031 12 279 4.8 12.9 0.00 0.00 0.00 55 1015.3
20260506012509 13 267 4.8 12.9 0.00 0.00 0.00 55 1015.2
20260506012013 13 305 6.4 12.9 0.00 0.00 0.00 54 1015.2
20260506011536 13 297 6.4 17.7 0.00 0.00 0.00 55 1015.2
20260506011015 13 292 6.4 12.9 0.00 0.00 0.00 54 1015.3
20260506010511 13 283 4.8 9.7 0.00 0.00 0.00 57 1015.4
20260506010030 13 268 1.6 6.4 0.00 0.00 0.00 55 1015.4
20260506005513 13 279 3.2 12.9 0.00 0.00 0.00 55 1015.4
20260506005011 13 296 4.8 12.9 0.00 0.00 0.00 56 1015.5
20260506004543 14 294 4.8 9.7 0.00 0.00 0.00 55 1015.3
20260506004012 13 298 6.4 11.3 0.00 0.00 0.00 53 1015.4
20260506003511 14 284 3.2 8.0 0.00 0.00 0.00 55 1015.5
20260506003033 14 302 4.8 9.7 0.00 0.00 0.00 57 1015.5
20260506002511 14 288 4.8 9.7 0.00 0.00 0.00 58 1015.4
20260506002017 14 304 4.8 9.7 0.00 0.00 0.00 56 1015.4
20260506001531 14 282 3.2 11.3 0.00 0.00 0.00 55 1015.4
20260506001010 15 286 1.6 9.7 0.00 0.00 0.00 56 1015.5
20260506000513 15 287 4.8 14.5 0.00 0.00 0.00 54 1015.5
20260506000030 14 297 6.4 14.5 0.00 0.00 0.00 56 1015.4
20260505235510 14 282 8.0 12.9 0.00 0.00 0.00 58 1015.3